Location: Unspecified
(0.0000°N, 0.0000°E)
Time: 20:29:21
(UTC+00:00)

Vanguard 2 - All Passes

Search period start: 14 July 2020 00:00
Search period end: 24 July 2020 00:00
Orbit: 552 x 2938 km, 32.9° (Epoch: 13 July)

Date Brightness Start Highest point End Pass type
(mag) Time Alt. Az. Time Alt. Az. Time Alt. Az.
14 Jul - 00:39:41 10° SW 00:47:05 47° SSE 00:51:50 10° ENE night (unlit)
14 Jul - 02:51:36 10° W 02:55:19 20° NW 02:58:26 10° N visible
14 Jul - 11:31:41 10° NNW 11:41:17 43° NE 11:55:46 10° ESE daylight
14 Jul - 13:39:51 10° WNW 13:52:51 76° SW 14:10:53 10° SE daylight
14 Jul - 15:52:54 10° W 16:07:00 34° SSW 16:22:14 10° SSE daylight
14 Jul - 18:14:04 10° SW 18:23:33 16° SSW 18:32:08 10° SSE visible
14 Jul - 20:36:02 10° SSW 20:40:42 12° S 20:44:48 10° SSE visible
14 Jul - 22:47:10 10° SSW 22:54:41 22° SSE 23:00:02 10° ESE night (unlit)
15 Jul - 00:57:32 10° SW 01:05:08 80° SE 01:09:54 10° ENE night (unlit)
15 Jul - 03:12:18 10° NW 03:13:07 10° NW 03:13:54 10° NNW visible
15 Jul - 09:44:33 10° N 09:48:56 14° NE 09:54:18 10° ENE daylight
15 Jul - 11:49:05 10° NW 11:59:10 57° NE 12:14:53 10° ESE daylight
15 Jul - 13:58:08 10° WNW 14:11:11 61° SSW 14:28:49 10° SE daylight
15 Jul - 16:12:46 10° WSW 16:26:00 28° SSW 16:39:51 10° SSE daylight
15 Jul - 18:35:16 10° SW 18:43:18 14° S 18:50:32 10° SSE visible
15 Jul - 20:53:36 10° SSW 21:00:07 14° S 21:05:28 10° SE visible
15 Jul - 23:04:28 10° SSW 23:13:19 31° SSE 23:19:05 10° E night (unlit)
16 Jul - 01:15:45 10° WSW 01:22:58 60° NW 01:27:37 10° NE night (unlit)
16 Jul - 10:00:47 10° N 10:06:58 21° NE 10:15:30 10° E daylight
16 Jul - 12:06:40 10° NW 12:17:05 75° NE 12:33:33 10° ESE daylight
16 Jul - 14:16:44 10° W 14:29:41 48° SSW 14:46:36 10° SE daylight
16 Jul - 16:33:09 10° WSW 16:45:16 23° SSW 16:57:36 10° SSE daylight
16 Jul - 18:55:44 10° SSW 19:03:08 14° S 19:09:43 10° SSE visible
16 Jul - 21:11:01 10° SSW 21:19:20 18° SSE 21:25:42 10° SE visible
16 Jul - 23:22:02 10° SW 23:31:44 44° SSE 23:37:40 10° E night (unlit)
17 Jul - 01:34:24 10° WSW 01:40:40 34° NW 01:44:58 10° NNE night (unlit)
17 Jul - 10:17:38 10° NNW 10:24:51 31° NE 10:35:39 10° E daylight
17 Jul - 12:24:30 10° WNW 12:35:07 86° SW 12:51:54 10° SE daylight
17 Jul - 14:35:44 10° W 14:48:24 38° SSW 15:04:19 10° SE daylight
17 Jul - 16:53:56 10° SW 17:04:49 19° SSW 17:15:36 10° SSE daylight
17 Jul - 19:15:07 10° SSW 19:22:57 15° S 19:29:44 10° SSE visible
17 Jul - 21:28:26 10° SSW 21:38:21 24° SSE 21:45:21 10° ESE visible
17 Jul - 23:39:51 10° SW 23:49:57 67° SSE 23:55:52 10° ENE night (unlit)
18 Jul - 01:53:41 10° W 01:58:18 20° NW 02:01:52 10° N night (unlit)
18 Jul - 10:34:47 10° NNW 10:42:36 43° NE 10:55:08 10° ESE daylight
18 Jul - 12:42:34 10° WNW 12:53:19 67° SSW 13:09:59 10° SE daylight
18 Jul - 14:55:09 10° W 15:07:21 30° SSW 15:22:00 10° SSE daylight
18 Jul - 17:14:50 10° SW 17:24:37 17° S 17:34:04 10° SSE daylight
18 Jul - 19:33:35 10° SSW 19:42:36 17° S 19:50:05 10° SE visible
18 Jul - 21:45:56 10° SW 21:57:09 32° SSE 22:04:31 10° E visible
18 Jul - 23:57:58 10° WSW 00:07:55 82° NW 00:13:45 10° NE night (unlit)
19 Jul - 02:14:33 10° NW 02:16:03 11° NW 02:17:25 10° NNW night (unlit)
19 Jul - 08:48:41 10° NNE 08:51:14 12° NE 08:54:10 10° ENE daylight
19 Jul - 10:52:11 10° NW 11:00:22 60° NE 11:14:05 10° ESE daylight
19 Jul - 13:00:55 10° WNW 13:11:43 52° SSW 13:27:52 10° SE daylight
19 Jul - 15:15:03 10° WSW 15:26:33 24° SSW 15:39:47 10° SSE daylight
19 Jul - 17:35:21 10° SW 17:44:33 16° S 17:53:13 10° SSE daylight
19 Jul - 19:51:32 10° SSW 20:02:02 20° SSE 20:10:17 10° ESE visible
19 Jul - 22:03:33 10° SW 22:15:44 43° SSE 22:23:14 10° E visible
20 Jul - 00:16:26 10° WSW 00:25:43 53° NW 00:31:20 10° NE night (unlit)
20 Jul - 09:04:20 10° N 09:09:07 19° NE 09:15:35 10° E daylight
20 Jul - 11:09:49 10° NW 11:18:15 82° NE 11:32:38 10° ESE daylight
20 Jul - 13:19:37 10° W 13:30:20 40° SSW 13:45:38 10° SE daylight
20 Jul - 15:35:23 10° SW 15:46:02 20° SSW 15:57:47 10° SSE daylight
20 Jul - 17:55:06 10° SSW 18:04:30 16° S 18:13:08 10° SE daylight
20 Jul - 20:09:15 10° SSW 20:21:14 25° SSE 20:30:06 10° ESE visible
20 Jul - 22:21:21 10° SW 22:34:06 60° SSE 22:41:36 10° ENE visible
21 Jul - 00:35:21 10° WSW 00:43:23 33° NW 00:48:37 10° NNE night (unlit)
21 Jul - 09:21:05 10° NNW 09:26:51 29° NE 09:35:34 10° E daylight
21 Jul - 11:27:43 10° WNW 11:36:17 75° SW 11:50:51 10° SE daylight
21 Jul - 13:38:43 10° W 13:49:10 32° SSW 14:03:20 10° SSE daylight
21 Jul - 15:55:58 10° SW 16:05:45 18° S 16:16:10 10° SSE daylight
21 Jul - 18:13:59 10° SSW 18:24:21 18° S 18:33:30 10° SE visible
21 Jul - 20:26:54 10° SW 20:40:12 32° SSE 20:49:27 10° E visible
21 Jul - 22:39:23 10° SW 22:52:16 83° SE 22:59:39 10° ENE visible
22 Jul - 00:54:53 10° W 01:01:02 21° NW 01:05:29 10° N night (unlit)
22 Jul - 09:38:13 10° NNW 09:44:31 44° NE 09:54:49 10° ESE daylight
22 Jul - 11:45:52 10° WNW 11:54:33 56° SSW 12:08:50 10° SE daylight
22 Jul - 13:58:16 10° WSW 14:08:15 25° SSW 14:21:04 10° SSE daylight
22 Jul - 16:16:24 10° SW 16:25:40 16° S 16:35:13 10° SSE daylight
22 Jul - 18:32:16 10° SSW 18:43:58 21° SSE 18:53:54 10° ESE visible
22 Jul - 20:44:35 10° SW 20:58:57 42° SSE 21:08:23 10° E visible
22 Jul - 22:57:42 10° WSW 23:10:12 72° NW 23:17:26 10° NE visible
23 Jul - 01:15:38 10° WNW 01:18:48 13° NW 01:21:29 10° NNW night (unlit)
23 Jul - 09:55:40 10° NW 10:02:14 66° NE 10:13:34 10° ESE daylight
23 Jul - 12:04:21 10° W 12:13:01 42° SSW 12:26:37 10° SE daylight
23 Jul - 14:18:15 10° WSW 14:27:35 20° SSW 14:38:55 10° SSE daylight
23 Jul - 16:36:16 10° SSW 16:45:40 16° S 16:55:05 10° SE daylight
23 Jul - 18:50:11 10° SSW 19:03:21 25° SSE 19:13:59 10° ESE visible
23 Jul - 21:02:22 10° SW 21:17:29 55° SSE 21:26:56 10° ENE visible
23 Jul - 23:16:23 10° WSW 23:27:58 50° NW 23:34:56 10° NE visible
